Weather in Kudeikha

Russia / Chuvash Republic     55°13′38″N   46°25′17″E
temp.,
°C
wind,
m/s
gust,
m/s
humid.,
%
clouds,
%
prec.,
mm/h
press.,
hPa
HPBL,
m
8 may, sat
sat800:00+7nnw1194100 0.8 101752
03:00+6n2395100 0.8 101765
06:00+7n12890 0.0 1018137
09:00+12e346848 0.0 1017960
12:00+14ese336131 0.0 10161124
15:00+14se456485 0.1 10151237
18:00+14ese377414 0.0 1013520
21:00+10ese41191100 0.0 1012260
9 may, sun
sun900:00+9se3692100 0.0 1011112
03:00+10se41188100 0.0 1010232
06:00+12sse51376100 0.0 1010417
09:00+15sse61365100 0.1 1010644
12:00+19sse61057100 0.0 10101122
15:00+19s51470100 0.6 10091556
18:00+14wsw4891100 3.1 1011392
21:00+10wnw4792100 4.2 1015356
10 may, mon
mon1000:00+8w2695100 0.0 1017292
03:00+7wnw3593100 0.0 1019388
06:00+6nnw4894100 0.6 1021438
09:00+7nnw4892100 0.8 1023491
12:00+7nnw3794100 0.8 1025507
15:00+8n4992100 1.2 1026546
18:00+10nne378690 0.0 1027755
21:00+7nne41191100 0.0 1028406
11 may, tue
tue1100:00+6ne31094100 0.0 1029292
03:00+5ne4119530 0.0 1029322
06:00+7ne41189100 0.0 1030386
09:00+12ne476599 0.0 1030596
12:00+16ene4556100 0.0 1030857
15:00+18ene5657100 0.0 1029920
18:00+15ene3770100 0.0 1030255
21:00+10ene388297 0.0 1030125
12 may, wed
wed1200:00+9ene387699 0.0 1030145
03:00+8ene39775 0.0 1029150
06:00+11e311755 0.0 1030314
09:00+18e475631 0.0 1029573
12:00+21e465255 0.0 10291075
15:00+22e56515 0.0 10281333
18:00+18e37635 0.0 1027272
21:00+13e411715 0.0 1027200